Time,TemperatureF,DewpointF,PressureIn,WindDirection,WindDirectionDegrees,WindSpeedMPH,WindSpeedGustMPH,Humidity,HourlyPrecipIn,Conditions,Clouds,dailyrainin,SoftwareType,DateUTC
2013-06-23 00:00:00,68.0,62.0,-100.00,West,276,0.0,4.0,83,0.00,,,-99.99,,2013-06-23 04:00:00,
2013-06-23 00:31:00,68.0,62.0,-100.00,West,276,0.0,4.0,83,0.00,,,-99.99,,2013-06-23 04:31:00,
2013-06-23 00:42:00,68.0,62.0,-100.00,West,276,0.0,4.0,83,0.00,,,-99.99,,2013-06-23 04:42:00,
2013-06-23 00:52:00,68.0,62.0,-100.00,West,276,0.0,4.0,83,0.00,,,-99.99,,2013-06-23 04:52:00,
2013-06-23 01:00:00,65.0,63.0,-100.00,SSE,164,0.0,0.0,93,0.00,,,-99.99,,2013-06-23 05:00:00,
2013-06-23 01:32:00,65.0,63.0,-100.00,SSE,164,0.0,0.0,93,0.00,,,-99.99,,2013-06-23 05:32:00,
2013-06-23 01:42:00,65.0,63.0,-100.00,SSE,164,0.0,0.0,93,0.00,,,-99.99,,2013-06-23 05:42:00,
2013-06-23 01:52:00,65.0,63.0,-100.00,SSE,164,0.0,0.0,93,0.00,,,-99.99,,2013-06-23 05:52:00,
2013-06-23 02:00:00,67.0,64.0,-100.00,East,93,0.0,0.0,92,0.00,,,-99.99,,2013-06-23 06:00:00,
2013-06-23 02:33:00,67.0,64.0,-100.00,East,93,0.0,0.0,92,0.00,,,-99.99,,2013-06-23 06:33:00,
2013-06-23 02:43:00,67.0,64.0,-100.00,East,93,0.0,0.0,92,0.00,,,-99.99,,2013-06-23 06:43:00,
2013-06-23 02:52:00,67.0,64.0,-100.00,East,93,0.0,0.0,92,0.00,,,-99.99,,2013-06-23 06:52:00,
2013-06-23 04:00:00,66.0,64.0,-100.00,North,11,0.0,0.0,96,0.00,,,-99.99,,2013-06-23 08:00:00,
2013-06-23 04:34:00,66.0,64.0,-100.00,North,11,0.0,0.0,96,0.00,,,-99.99,,2013-06-23 08:34:00,
2013-06-23 04:43:00,66.0,64.0,-100.00,North,11,0.0,0.0,96,0.00,,,-99.99,,2013-06-23 08:43:00,
2013-06-23 04:53:00,66.0,64.0,-100.00,North,11,0.0,0.0,96,0.00,,,-99.99,,2013-06-23 08:53:00,
2013-06-23 05:00:00,65.0,64.0,-100.00,NNE,22,0.0,0.0,96,0.00,,,-99.99,,2013-06-23 09:00:00,
2013-06-23 05:34:00,65.0,64.0,-100.00,NNE,22,0.0,0.0,96,0.00,,,-99.99,,2013-06-23 09:34:00,
2013-06-23 05:43:00,65.0,64.0,-100.00,NNE,22,0.0,0.0,96,0.00,,,-99.99,,2013-06-23 09:43:00,
2013-06-23 05:54:00,65.0,64.0,-100.00,NNE,22,0.0,0.0,96,0.00,,,-99.99,,2013-06-23 09:54:00,
2013-06-23 06:00:00,67.0,65.0,-100.00,NNE,21,0.0,0.0,94,0.00,,,-99.99,,2013-06-23 10:00:00,
2013-06-23 06:34:00,67.0,65.0,-100.00,NNE,21,0.0,0.0,94,0.00,,,-99.99,,2013-06-23 10:34:00,
2013-06-23 06:43:00,67.0,65.0,-100.00,NNE,21,0.0,0.0,94,0.00,,,-99.99,,2013-06-23 10:43:00,
2013-06-23 06:53:00,67.0,65.0,-100.00,NNE,21,0.0,0.0,94,0.00,,,-99.99,,2013-06-23 10:53:00,
2013-06-23 07:00:00,69.0,66.0,-100.00,SE,137,0.0,3.0,92,0.00,,,-99.99,,2013-06-23 11:00:00,
2013-06-23 07:33:00,69.0,66.0,-100.00,SE,137,0.0,3.0,92,0.00,,,-99.99,,2013-06-23 11:33:00,
2013-06-23 07:43:00,69.0,66.0,-100.00,SE,137,0.0,3.0,92,0.00,,,-99.99,,2013-06-23 11:43:00,
2013-06-23 07:53:00,69.0,66.0,-100.00,SE,137,0.0,3.0,92,0.00,,,-99.99,,2013-06-23 11:53:00,
2013-06-23 08:00:00,72.0,69.0,-100.00,ESE,122,1.0,5.0,90,0.00,,,-99.99,,2013-06-23 12:00:00,
2013-06-23 08:34:00,72.0,69.0,-100.00,ESE,122,1.0,5.0,90,0.00,,,-99.99,,2013-06-23 12:34:00,
2013-06-23 08:43:00,72.0,69.0,-100.00,ESE,122,1.0,5.0,90,0.00,,,-99.99,,2013-06-23 12:43:00,
2013-06-23 08:53:00,72.0,69.0,-100.00,ESE,122,1.0,5.0,90,0.00,,,-99.99,,2013-06-23 12:53:00,
2013-06-23 09:00:00,74.0,71.0,-100.00,SE,126,3.0,7.0,90,0.00,,,-99.99,,2013-06-23 13:00:00,
2013-06-23 09:43:00,74.0,71.0,-100.00,SE,126,3.0,7.0,90,0.00,,,-99.99,,2013-06-23 13:43:00,
2013-06-23 09:54:00,74.0,71.0,-100.00,SE,126,3.0,7.0,90,0.00,,,-99.99,,2013-06-23 13:54:00,
2013-06-23 10:00:00,75.0,71.0,-100.00,SSE,148,5.0,11.0,88,0.00,,,-99.99,,2013-06-23 14:00:00,
2013-06-23 10:34:00,75.0,71.0,-100.00,SSE,148,5.0,11.0,88,0.00,,,-99.99,,2013-06-23 14:34:00,
2013-06-23 10:44:00,75.0,71.0,-100.00,SSE,148,5.0,11.0,88,0.00,,,-99.99,,2013-06-23 14:44:00,
2013-06-23 10:52:00,75.0,71.0,-100.00,SSE,148,5.0,11.0,88,0.00,,,-99.99,,2013-06-23 14:52:00,
2013-06-23 11:00:00,76.0,72.0,-100.00,SSE,157,4.0,9.0,86,0.00,,,-99.99,,2013-06-23 15:00:00,
2013-06-23 11:35:00,76.0,72.0,-100.00,SSE,157,4.0,9.0,86,0.00,,,-99.99,,2013-06-23 15:35:00,
2013-06-23 11:43:00,76.0,72.0,-100.00,SSE,157,4.0,9.0,86,0.00,,,-99.99,,2013-06-23 15:43:00,
2013-06-23 11:53:00,76.0,72.0,-100.00,SSE,157,4.0,9.0,86,0.00,,,-99.99,,2013-06-23 15:53:00,
2013-06-23 12:00:00,76.0,72.0,-100.00,SSE,161,5.0,12.0,88,0.00,,,-99.99,,2013-06-23 16:00:00,
2013-06-23 12:36:00,76.0,72.0,-100.00,SSE,161,5.0,12.0,88,0.00,,,-99.99,,2013-06-23 16:36:00,
2013-06-23 12:43:00,76.0,72.0,-100.00,SSE,161,5.0,12.0,88,0.00,,,-99.99,,2013-06-23 16:43:00,
2013-06-23 12:53:00,76.0,72.0,-100.00,SSE,161,5.0,12.0,88,0.00,,,-99.99,,2013-06-23 16:53:00,
2013-06-23 13:00:00,76.0,72.0,-100.00,SE,139,10.0,16.0,87,0.00,,,-99.99,,2013-06-23 17:00:00,
2013-06-23 13:34:00,76.0,72.0,-100.00,SE,139,10.0,16.0,87,0.00,,,-99.99,,2013-06-23 17:34:00,
2013-06-23 13:43:00,76.0,72.0,-100.00,SE,139,10.0,16.0,87,0.00,,,-99.99,,2013-06-23 17:43:00,
2013-06-23 13:53:00,76.0,72.0,-100.00,SE,139,10.0,16.0,87,0.00,,,-99.99,,2013-06-23 17:53:00,
2013-06-23 14:00:00,75.0,72.0,-100.00,SSE,164,6.0,16.0,90,0.00,,,-99.99,,2013-06-23 18:00:00,
2013-06-23 14:34:00,75.0,72.0,-100.00,SSE,164,6.0,16.0,90,0.00,,,-99.99,,2013-06-23 18:34:00,
2013-06-23 14:43:00,75.0,72.0,-100.00,SSE,164,6.0,16.0,90,0.00,,,-99.99,,2013-06-23 18:43:00,
2013-06-23 14:53:00,75.0,72.0,-100.00,SSE,164,6.0,16.0,90,0.00,,,-99.99,,2013-06-23 18:53:00,
2013-06-23 15:00:00,77.0,73.0,-100.00,SSE,159,6.0,14.0,87,0.00,,,-99.99,,2013-06-23 19:00:00,
2013-06-23 15:32:00,77.0,73.0,-100.00,SSE,159,6.0,14.0,87,0.00,,,-99.99,,2013-06-23 19:32:00,
2013-06-23 15:43:00,77.0,73.0,-100.00,SSE,159,6.0,14.0,87,0.00,,,-99.99,,2013-06-23 19:43:00,
2013-06-23 15:53:00,77.0,73.0,-100.00,SSE,159,6.0,14.0,87,0.00,,,-99.99,,2013-06-23 19:53:00,
2013-06-23 16:00:00,77.0,73.0,-100.00,SSE,165,5.0,16.0,88,0.00,,,-99.99,,2013-06-23 20:00:00,
2013-06-23 16:34:00,77.0,73.0,-100.00,SSE,165,5.0,16.0,88,0.00,,,-99.99,,2013-06-23 20:34:00,
2013-06-23 16:42:00,77.0,73.0,-100.00,SSE,165,5.0,16.0,88,0.00,,,-99.99,,2013-06-23 20:42:00,
2013-06-23 16:53:00,77.0,73.0,-100.00,SSE,165,5.0,16.0,88,0.00,,,-99.99,,2013-06-23 20:53:00,
2013-06-23 17:00:00,74.0,72.0,-100.00,South,184,5.0,16.0,91,0.00,,,-99.99,,2013-06-23 21:00:00,
2013-06-23 17:34:00,74.0,72.0,-100.00,South,184,5.0,16.0,91,0.00,,,-99.99,,2013-06-23 21:34:00,
2013-06-23 17:44:00,74.0,72.0,-100.00,South,184,5.0,16.0,91,0.00,,,-99.99,,2013-06-23 21:44:00,
2013-06-23 17:52:00,74.0,72.0,-100.00,South,184,5.0,16.0,91,0.00,,,-99.99,,2013-06-23 21:52:00,
2013-06-23 18:00:00,75.0,72.0,-100.00,SE,128,1.0,16.0,91,0.00,,,-99.99,,2013-06-23 22:00:00,
2013-06-23 18:33:00,75.0,72.0,-100.00,SE,128,1.0,16.0,91,0.00,,,-99.99,,2013-06-23 22:33:00,
2013-06-23 18:43:00,75.0,72.0,-100.00,SE,128,1.0,16.0,91,0.00,,,-99.99,,2013-06-23 22:43:00,
2013-06-23 18:53:00,75.0,72.0,-100.00,SE,128,1.0,16.0,91,0.00,,,-99.99,,2013-06-23 22:53:00,
2013-06-23 19:00:00,74.0,71.0,-100.00,SSW,209,5.0,16.0,92,0.00,,,-99.99,,2013-06-23 23:00:00,
2013-06-23 19:33:00,74.0,71.0,-100.00,SSW,209,5.0,16.0,92,0.00,,,-99.99,,2013-06-23 23:33:00,
2013-06-23 19:44:00,74.0,71.0,-100.00,SSW,209,5.0,16.0,92,0.00,,,-99.99,,2013-06-23 23:44:00,
2013-06-23 19:52:00,74.0,71.0,-100.00,SSW,209,5.0,16.0,92,0.00,,,-99.99,,2013-06-23 23:52:00,
2013-06-23 20:00:00,72.0,70.0,-100.00,ESE,123,2.0,11.0,93,0.00,,,-99.99,,2013-06-24 00:00:00,
2013-06-23 20:33:00,72.0,70.0,-100.00,ESE,123,2.0,11.0,93,0.00,,,-99.99,,2013-06-24 00:33:00,
2013-06-23 20:43:00,72.0,70.0,-100.00,ESE,123,2.0,11.0,93,0.00,,,-99.99,,2013-06-24 00:43:00,
2013-06-23 20:52:00,72.0,70.0,-100.00,ESE,123,2.0,11.0,93,0.00,,,-99.99,,2013-06-24 00:52:00,
2013-06-23 21:00:00,71.0,70.0,-100.00,SSE,154,2.0,8.0,96,0.00,,,-99.99,,2013-06-24 01:00:00,
2013-06-23 21:32:00,71.0,70.0,-100.00,SSE,154,2.0,8.0,96,0.00,,,-99.99,,2013-06-24 01:32:00,
2013-06-23 21:42:00,71.0,70.0,-100.00,SSE,154,2.0,8.0,96,0.00,,,-99.99,,2013-06-24 01:42:00,
2013-06-23 21:53:00,71.0,70.0,-100.00,SSE,154,2.0,8.0,96,0.00,,,-99.99,,2013-06-24 01:53:00,
2013-06-23 22:00:00,72.0,70.0,-100.00,SW,233,0.0,8.0,95,0.00,,,-99.99,,2013-06-24 02:00:00,
2013-06-23 22:33:00,72.0,70.0,-100.00,SW,233,0.0,8.0,95,0.00,,,-99.99,,2013-06-24 02:33:00,
2013-06-23 22:42:00,72.0,70.0,-100.00,SW,233,0.0,8.0,95,0.00,,,-99.99,,2013-06-24 02:42:00,
2013-06-23 22:53:00,72.0,70.0,-100.00,SW,233,0.0,8.0,95,0.00,,,-99.99,,2013-06-24 02:53:00,
2013-06-23 23:00:00,72.0,70.0,-100.00,South,172,0.0,5.0,95,0.00,,,-99.99,,2013-06-24 03:00:00,
2013-06-23 23:33:00,72.0,70.0,-100.00,South,172,0.0,5.0,95,0.00,,,-99.99,,2013-06-24 03:33:00,
2013-06-23 23:43:00,72.0,70.0,-100.00,South,172,0.0,5.0,95,0.00,,,-99.99,,2013-06-24 03:43:00,
2013-06-23 23:53:00,72.0,70.0,-100.00,South,172,0.0,5.0,95,0.00,,,-99.99,,2013-06-24 03:53:00,